Miscellaneous Local Product
Issued by NWS North Platte, NE

Home | Current Version | Previous Version | Text Only | Print | Product List | Glossary On
Versions: 1 2 3 4 5 6 7 8 9 10 11 12 13 14 15 16 17 18 19 20 21 22 23 24 25 26 27 28 29 30 31 32 33 34 35 36 37 38 39 40 41 42 43 44 45 46 47 48 49 50
000
AXUS43 KLBF 050810
MISLBF


WESTERN AND NORTH CENTRAL NEBRASKA HOURLY WEATHER ROUNDUP
NATIONAL WEATHER SERVICE NORTH PLATTE NE
200 AM CST THU MAR 05 2015

***STATIONS NOT REPORTING VARIABLES SUCH AS SKY/WEATHER OR
PRESSURE ARE PROVIDED BY THE NEBRASKA DEPARTMENT OF
ROADS...RAWS...AND APRS NETWORKS...AND ARE NOT UNDER
NATIONAL WEATHER SERVICE QUALITY CONTROL***

...OBSERVATIONS IN AND NEAR THE EASTERN PANHANDLE OF NEBRASKA...

CITY           SKY/WX    TMP DP  RH WIND       PRES   REMARKS
PINE RIDGE     CLEAR     -8 -13  78 CALM      30.24F
CHADRON        MOCLDY    -4  -8  83 SW3       30.25F
ALLIANCE       CLEAR      1  -5  75 CALM      30.22F
SIDNEY         CLEAR      9   3  77 W9        30.23F WCI  -4
WHITECLAY        N/A     -7 -13  74 E6          N/A  WCI -20
CRESCENT LAKE    N/A      7   3  82 CALM        N/A
LISCO            N/A      9  -1  65 CALM        N/A
BIG SPRINGS      N/A      9   5  83 SW7         N/A  WCI  -2
LEWELLEN         N/A      1  -7  70 CALM        N/A
$$

...OBSERVATIONS IN NORTH CENTRAL NEBRASKA...

CITY           SKY/WX    TMP DP  RH WIND       PRES   REMARKS
VALENTINE      CLEAR     -1  -6  79 SW6       30.33S WCI -13
THEDFORD       CLEAR      6   0  78 SW8       30.33S WCI  -7
AINSWORTH      CLEAR      2  -3  79 SW6       30.33S WCI  -9
O`NEILL        CLEAR      1  -2  88 SW5       30.39S WCI  -9
ORD            CLEAR     -1  -8  72 SW5       30.40R WCI -11
BROKEN BOW     CLEAR      0  -6  76 CALM      30.36S
BROWNLEE         N/A      0  -4  84 S5          N/A  WCI -10
SPRINGVIEW       N/A     -6 -10  82 CALM        N/A
BREWSTER         N/A     30  25  80 CALM        N/A
ROSE             N/A     11   9  89 CALM        N/A
NEWPORT          N/A      4   2  88 S5          N/A  WCI  -5
SARGENT          N/A      2  -2  83 CALM        N/A
COMSTOCK         N/A     30  19  64 W3          N/A
CHAMBERS         N/A     -2 -21  40 CALM        N/A
EWING            N/A      0  -6  76 CALM        N/A
$$

...OBSERVATIONS IN SOUTHWEST NEBRASKA AND FAR NORTHEAST COLORADO...

CITY           SKY/WX    TMP DP  RH WIND       PRES   REMARKS
WRAY           FAIR      13   9  84 SW6       30.29S WCI   3
IMPERIAL         N/A      9   2  73 N7        30.30S WCI  -2
OGALLALA       CLEAR      3   0  85 CALM      30.29S
NORTH PLATTE   CLEAR      4  -3  73 CALM      30.34S
MCCOOK         CLEAR     13   2  61 E6        30.35S WCI   4
LEXINGTON      CLEAR      5   0  78 CALM      30.38S
PAXTON           N/A      4  -2  75 CALM        N/A
BRADY            N/A      5  -3  70 CALM        N/A
GOTHENBURG       N/A      8  -1  68 CALM        N/A
CALLAWAY         N/A      2  -4  73 CALM        N/A
$$

...NORTH PLATTE AREA...

CITY           SKY/WX    TMP DP  RH WIND       PRES   REMARKS
AIRPORT        CLEAR      4  -3  73 CALM      30.34S
DOWNTOWN         N/A      7   0  72 CALM        N/A
$$

...SOME WEATHER OBSERVATIONS FROM AROUND THE REGION...

CITY           SKY/WX    TMP DP  RH WIND       PRES   REMARKS
DENVER         CLEAR      3  -3  76 S12       30.17F WCI -13
LARAMIE        PTCLDY     8  -1  66 SW12      30.10S WCI  -7
CHEYENNE       CLEAR     16   0  49 W12       30.13R WCI   3
SCOTTSBLUFF    CLEAR      6   0  76 E3        30.23S
RAPID CITY     CLEAR      6   0  76 S7        30.20F WCI  -6
PIERRE         PTCLDY    -4  -9  79 SE9       30.37F WCI -20
WINNER         FAIR       4  -7  60 S6        30.36F WCI  -7
SIOUX FALLS    CLEAR     -7 -12  79 W3        30.44S
OMAHA          CLEAR      6  -3  66 NE6       30.50R WCI  -4
GRAND ISLAND   CLEAR      6  -2  69 CALM      30.45R
KANSAS CITY    CLEAR     14   3  61 N12       30.45R WCI   0
WICHITA        PTCLDY    18  10  71 NW6       30.43R WCI  10
HAYS           MOCLDY    18   0  45 W6        30.39R WCI   9
LIBERAL        CLEAR     10   3  72 NW7       30.41R WCI   0
GOODLAND       CLEAR     15   8  73 W13       30.29S WCI   1
$$



USA.gov is the U.S. government's official web portal to all federal, state and local government web resources and services.